Weather in Manaskent

Russia / Republic of Dagestan     42˚44′23″N   47˚41′29″E
temp.,
°C
wind,
m/s
gust,
m/s
humid.,
%
clouds,
%
prec.,
mm/h
press.,
hPa
HPBL,
m
17 january, sun
sun1700:00+5˚ese3592100 0.3 1014297
03:00+6˚se3592100 0.8 1012218
06:00+6˚e4695100 0.4 1010249
09:00+6˚se3492100 0.9 1008142
12:00+7˚ese579184 0.0 1005295
15:00+7˚ese349390 0.1 1003165
18:00+7˚ne229499 0.1 100384
21:00+7˚nnw449492 0.1 1002172
18 january, mon
mon1800:00+6˚nw699153 0.0 1001219
03:00+5˚nnw678959 0.0 1000236
06:00+5˚nw7987100 0.0 1001380
09:00+5˚nw101679100 0.0 1005838
12:00+6˚nnw91274100 0.0 1007761
15:00+6˚nnw111568100 0.0 1009917
18:00+5˚nnw7974100 0.0 1012790
21:00+4˚nnw10126791 0.0 1013695
19 january, tue
tue1900:00+2˚nnw9116598 0.0 1015634
03:00+1˚nw9116799 0.1 1016655
06:00+1˚nw8967100 0.1 1018577
09:00+1˚nw786697 0.1 1020675
12:00+2˚nnw895597 0.0 10211014
15:00+2˚nne335599 0.0 1019806
18:00+1˚se3361100 0.0 1020545
21:00+2˚se4562100 0.0 1020654
20 january, wed
wed2000:00+2˚ese4565100 0.0 1019631
03:00ese2390100 0.1 1019304
06:00n119299 0.3 1020154
09:00n449699 1.9 1022305
12:00+1˚nnw6889100 2.1 1022569
15:00n8986100 4.0 1022728
18:00nnw5680100 0.2 1024658
21:00nw4579100 0.2 1026439
21 january, thu
thu2100:00−1˚nw4479100 0.0 1027400
03:00−2˚nw557870 0.0 1028368
06:00−2˚nw567922 0.0 1030420
09:00−2˚nnw667713 0.0 1032413
12:00−2˚nnw557720 0.0 1032559
15:00−1˚nnw337144 0.0 1032623
18:00s227136 0.0 1034318
21:00sse447120 0.0 1035374